[[{"header":{"parameterUnit":"m.s-1","parameterCategory":1,"la1":30.2991,"la2":30.254,"lo1":-89.0895,"lo2":-89.0444,"dy":0.0017,"dx":0.0017,"nx":28,"ny":28,"refTime":"2024-07-14T21:00:00:Z","depth":0,"parameterNumber":2,"parameterNumberName":"U-component_of_WINDS"},"data":[0,0,0,0,0,0,0,0,0,0,0,0,0,0,0,0,0,0,0,0,0,0,0,0,0,0,0,0,0,0,0,0,0,0,0,0,0,0,0,0,0,0,0,0,0,0,0,0,0,0,0,0,0,0,0,0,0,0,2.0327,2.0327,0,2.0402,2.0403,2.0404,2.0424,2.0424,2.0423,2.0423,2.0505,2.0508,2.051,0,0,0,0,0,0,0,0,0,0,0,0,0,2.0204,2.0206,2.0326,2.0327,2.0328,2.0402,2.0403,2.0404,2.0424,2.0424,2.0423,2.0423,2.0504,2.0507,2.051,0,0,0,0,0,0,0,0,0,0,0,0,0,2.0266,2.0207,2.0326,2.0347,2.035,2.0402,2.0403,2.0404,2.0424,2.0424,2.0423,2.0422,2.0503,2.0507,2.0511,2.0549,0,0,2.0523,2.0525,0,0,0,0,0,0,0,0,2.0263,2.0271,2.0343,2.0346,2.0349,2.0403,2.039,2.0453,2.0425,2.0396,2.0423,2.0422,2.0472,2.0478,2.0494,2.0553,2.0556,2.0523,2.0526,2.0527,2.0528,0,0,0,0,0,0,0,2.0258,2.0268,2.0357,2.0344,2.0348,2.0354,2.0362,2.0402,2.0437,2.0399,2.04,2.0409,2.0473,2.049,2.0496,2.0557,2.0523,2.0527,2.0529,2.0531,2.065,2.0651,0,0,0,0,0,0,2.025,2.0264,2.0354,2.0359,2.0303,2.0357,2.0366,2.0386,2.0437,2.0444,2.0409,2.0409,2.0484,2.0492,2.0499,2.0546,2.0527,2.0531,2.0533,2.065,2.0651,2.0652,0,0,0,0,0,0,2.0247,2.0258,2.0351,2.0312,2.0324,2.036,2.0383,2.0388,2.0405,2.0445,2.0452,2.042,2.0484,2.0494,2.0536,2.055,2.0533,2.0536,2.0649,2.065,2.0651,2.0641,0,0,0,0,0,0,2.0243,2.0256,2.027,2.0312,2.0326,2.0385,2.0383,2.039,2.0411,2.0412,2.0456,2.0463,2.0484,2.053,2.054,2.0555,2.0539,2.0648,2.0649,2.0651,2.064,2.0642,2.0643,0,0,0,0,0,2.0239,2.0266,2.0271,2.0282,2.0344,2.0386,2.0394,2.0416,2.0412,2.0427,2.0452,2.0462,2.0547,2.0534,2.0545,2.0562,2.0647,2.0649,2.0651,2.064,2.0642,2.0643,0,0,0,0,0,0,2.0226,2.0271,2.0278,2.0318,2.0348,2.0389,2.0408,2.0418,2.045,2.045,2.0477,2.0487,2.0527,2.0549,2.0534,2.0601,2.0597,2.0601,2.0585,2.0587,2.0588,2.0582,2.0543,0,0,0,0,0,2.0228,2.0257,2.0295,2.0327,2.0342,2.0372,2.0392,2.0406,2.0438,2.0451,2.048,2.0512,2.0546,2.0568,2.0601,2.0644,2.0654,2.0661,2.0662,2.0663,2.0666,2.069,2.0693,2.0658,2.0658,2.0658,0,0,2.0232,2.026,2.0277,2.0326,2.035,2.038,2.0383,2.0415,2.0438,2.0457,2.0497,2.052,2.0558,2.06,2.062,2.0619,2.0678,2.0665,2.0666,2.0669,2.0692,2.0696,2.0699,2.0659,2.0659,2.0659,0,0,2.0255,2.0279,2.0308,2.0332,2.0369,2.0389,2.0396,2.0436,2.0451,2.0492,2.0506,2.0535,2.0593,2.0619,2.064,2.0673,2.0682,2.0683,2.069,2.0713,2.0716,2.0718,2.073,2.0733,2.0686,2.0686,2.0686,0,2.0256,2.0301,2.0322,2.0353,2.0374,2.0391,2.0421,2.0444,2.0491,2.0505,2.0504,2.0576,2.0603,2.0651,2.0659,2.0675,2.0685,2.0678,2.0713,2.0716,2.0719,2.073,2.0734,2.0686,2.0686,2.0686,2.0686,0,2.03,2.0331,2.035,2.0392,2.0416,2.0446,2.0474,2.0495,2.0508,2.0528,2.057,2.0603,2.0643,2.0656,2.0669,2.0706,2.0704,2.0708,2.0704,2.0722,2.0732,2.0737,2.0686,2.0686,2.0686,2.0686,0,0,2.0316,2.037,2.0376,2.0396,2.0437,2.0462,2.0494,2.0531,2.0549,2.0581,2.0608,2.0657,2.066,2.0683,2.07,2.072,2.0743,2.0721,2.0722,2.0724,2.0786,2.0782,2.0787,2.075,2.0751,2.0752,2.0782,0,2.0344,2.0399,2.042,2.0466,2.0495,2.0511,2.0539,2.0568,2.0588,2.0617,2.064,2.0673,2.0675,2.0689,2.071,2.0736,2.0756,2.0734,2.0777,2.0778,2.0766,2.0792,2.0789,2.0816,2.0787,2.0787,2.0788,0,2.0383,2.0413,2.0461,2.0499,2.0512,2.0536,2.0572,2.0599,2.0633,2.0646,2.0672,2.0687,2.0722,2.0717,2.0766,2.075,2.0769,2.0784,2.0786,2.079,2.0783,2.0797,2.0826,2.0829,2.0795,2.0794,2.0794,0,2.039,2.0443,2.0478,2.0494,2.0539,2.0556,2.0575,2.0608,2.0629,2.0661,2.0675,2.0712,2.0732,2.076,2.0785,2.0778,2.0831,2.0828,2.0844,2.0843,2.0854,2.0853,2.0885,2.0867,2.0867,2.0867,2.0867,0,2.0418,2.0447,2.0481,2.0503,2.0536,2.056,2.0592,2.0614,2.0643,2.067,2.0687,2.0712,2.0743,2.0773,2.0793,2.083,2.084,2.0852,2.0857,2.085,2.0848,2.0862,2.0861,2.0868,2.0868,2.0867,2.0867,0,2.043,2.0455,2.0494,2.0533,2.0544,2.0566,2.06,2.0622,2.0643,2.0677,2.0687,2.072,2.0756,2.0783,2.083,2.0844,2.0883,2.0888,2.0871,2.0873,2.0887,2.0885,2.0929,2.0936,2.0913,2.0914,2.0914,0,2.0446,2.0469,2.0509,2.0528,2.0547,2.0577,2.0598,2.0623,2.0644,2.0684,2.0702,2.0738,2.0769,2.0825,2.0855,2.0891,2.0897,2.091,2.0903,2.0895,2.0897,2.0895,2.0897,2.0911,2.0911,2.0911,2.0911,0,2.0472,2.0483,2.0512,2.0545,2.0569,2.0597,2.0626,2.064,2.0671,2.0694,2.073,2.0753,2.08,2.0837,2.0876,2.0898,2.091,2.0913,2.0919,2.0912,2.09,2.0906,2.0873,2.0912,2.0912,2.0912,2.0912,2.0912,2.0487,2.0507,2.0538,2.057,2.0594,2.062,2.0642,2.0665,2.0695,2.0734,2.0748,2.0784,2.0818,2.0871,2.0893,2.0923,2.0924,2.0932,2.0934,2.0935,2.0934,2.0895,2.0931,2.0931,2.0931,2.0931,2.0931,0,2.0512,2.0533,2.0562,2.06,2.0626,2.0633,2.0665,2.0686,2.0718,2.0747,2.0776,2.0818,2.0853,2.0884,2.0921,2.0939,2.0946,2.0948,2.0947,2.0952,2.0932,2.0923,2.0942,2.0942,2.0942,2.0942,2.0942,2.0942,2.0529,2.0563,2.0578,2.0625,2.0646,2.0681,2.0698,2.0722,2.0746,2.079,2.0819,2.0839,2.087,2.0909,2.0942,2.095,2.0963,2.0964,2.0974,2.0955,2.0953,2.0952,2.0943,2.0966,2.0966,2.0991,2.0991,2.0991]},{"header":{"parameterUnit":"m.s-1","parameterCategory":1,"la1":30.2991,"la2":30.254,"lo1":-89.0895,"lo2":-89.0444,"dy":0.0017,"dx":0.0017,"nx":28,"ny":28,"refTime":"2024-07-14T21:00:00:Z","depth":0,"parameterNumber":3,"parameterNumberName":"V-component_of_WINDS"},"data":[0,0,0,0,0,0,0,0,0,0,0,0,0,0,0,0,0,0,0,0,0,0,0,0,0,0,0,0,0,0,0,0,0,0,0,0,0,0,0,0,0,0,0,0,0,0,0,0,0,0,0,0,0,0,0,0,0,0,2.5538,2.5538,0,2.5531,2.5531,2.5531,2.5553,2.5554,2.5554,2.5555,2.5545,2.5544,2.5543,0,0,0,0,0,0,0,0,0,0,0,0,0,2.5567,2.5566,2.5538,2.5538,2.5538,2.5531,2.5531,2.5531,2.5553,2.5554,2.5554,2.5555,2.5545,2.5544,2.5543,0,0,0,0,0,0,0,0,0,0,0,0,0,2.5556,2.5566,2.5538,2.5548,2.5549,2.5531,2.5531,2.5531,2.5553,2.5554,2.5555,2.5556,2.5546,2.5545,2.5543,2.5515,0,0,2.5539,2.5539,0,0,0,0,0,0,0,0,2.5557,2.5555,2.5546,2.5547,2.5548,2.5544,2.5537,2.5525,2.5552,2.5551,2.5555,2.5556,2.5544,2.5543,2.5539,2.5514,2.5514,2.5539,2.5538,2.5538,2.5537,0,0,0,0,0,0,0,2.5557,2.5556,2.5535,2.5546,2.5547,2.5552,2.5551,2.5535,2.5542,2.5551,2.5553,2.5552,2.5544,2.554,2.5539,2.5513,2.5539,2.5538,2.5537,2.5536,2.5462,2.5461,0,0,0,0,0,0,2.5557,2.5556,2.5535,2.5535,2.5555,2.555,2.555,2.5544,2.5542,2.5543,2.5551,2.5553,2.5542,2.554,2.5539,2.5503,2.5538,2.5536,2.5536,2.5463,2.5461,2.546,0,0,0,0,0,0,2.5558,2.5555,2.5535,2.5546,2.5544,2.5549,2.5542,2.5543,2.5539,2.5542,2.5543,2.5546,2.5543,2.5541,2.552,2.5503,2.5536,2.5535,2.5464,2.5462,2.5461,2.5432,0,0,0,0,0,0,2.5559,2.5555,2.5545,2.5545,2.5543,2.5518,2.5541,2.5543,2.5537,2.554,2.5537,2.5538,2.5543,2.5522,2.5519,2.5502,2.5534,2.5466,2.5463,2.5461,2.5435,2.543,2.5425,0,0,0,0,0,2.556,2.5538,2.5545,2.5542,2.5531,2.5517,2.5515,2.5523,2.5536,2.5525,2.5526,2.5538,2.5506,2.5519,2.5516,2.5498,2.5467,2.5464,2.5462,2.5437,2.5431,2.5425,0,0,0,0,0,0,2.5535,2.5538,2.5546,2.5523,2.552,2.5521,2.5507,2.5517,2.5509,2.5511,2.5521,2.552,2.5497,2.5496,2.5511,2.5469,2.5488,2.5485,2.547,2.5465,2.546,2.546,2.5532,0,0,0,0,0,2.5527,2.5516,2.5519,2.5499,2.5497,2.5502,2.5497,2.5503,2.5499,2.5497,2.5497,2.5492,2.5481,2.5473,2.5463,2.5435,2.5433,2.5421,2.5416,2.5413,2.5409,2.5391,2.5385,2.5451,2.5451,2.5452,0,0,2.551,2.551,2.5503,2.5494,2.5492,2.5479,2.5501,2.5487,2.5477,2.5495,2.5475,2.5475,2.547,2.5444,2.5434,2.5443,2.539,2.5409,2.5406,2.5404,2.5388,2.5382,2.5376,2.545,2.545,2.545,0,0,2.5473,2.5473,2.5455,2.5452,2.5449,2.5453,2.5448,2.5447,2.5448,2.5428,2.5441,2.5429,2.541,2.5405,2.54,2.5359,2.5368,2.5355,2.533,2.5313,2.5308,2.5303,2.5286,2.528,2.5352,2.5352,2.5352,0,2.5452,2.5434,2.5444,2.5429,2.5424,2.544,2.5421,2.5418,2.5411,2.5406,2.5417,2.5392,2.539,2.5363,2.5352,2.5349,2.5342,2.5355,2.5308,2.5304,2.5299,2.5283,2.5277,2.535,2.535,2.535,2.5351,0,2.5408,2.5395,2.5381,2.5374,2.5367,2.535,2.5356,2.5348,2.5355,2.5357,2.5335,2.5333,2.5322,2.5316,2.5323,2.5289,2.5295,2.5307,2.5326,2.5291,2.5276,2.527,2.5348,2.5348,2.5349,2.5349,0,0,2.5354,2.5353,2.5347,2.5343,2.534,2.533,2.5313,2.5302,2.5294,2.5288,2.5273,2.5255,2.5266,2.526,2.5266,2.5251,2.5216,2.5265,2.5265,2.5254,2.5176,2.5165,2.5158,2.5223,2.5222,2.5221,2.5175,0,2.5315,2.5287,2.5295,2.5266,2.5253,2.5268,2.5252,2.5248,2.5249,2.5237,2.5238,2.5225,2.5241,2.5237,2.5224,2.5223,2.52,2.5227,2.5206,2.5205,2.5205,2.5151,2.514,2.5097,2.517,2.5169,2.5168,0,2.5266,2.5259,2.5229,2.5226,2.5221,2.5207,2.5197,2.5187,2.5181,2.5182,2.5175,2.5184,2.5165,2.5185,2.5157,2.5175,2.5167,2.5166,2.5164,2.5161,2.5183,2.5144,2.5084,2.5077,2.5159,2.516,2.5161,0,2.5227,2.521,2.5189,2.5186,2.5183,2.5172,2.517,2.5166,2.5158,2.5149,2.5144,2.5133,2.5126,2.5116,2.512,2.5135,2.509,2.5112,2.5089,2.5089,2.5078,2.5078,2.5014,2.5076,2.5076,2.5076,2.5076,0,2.5182,2.5162,2.5171,2.5158,2.5135,2.5145,2.5122,2.5121,2.5117,2.5102,2.5115,2.5101,2.5108,2.5094,2.5097,2.5072,2.5069,2.5069,2.5069,2.5066,2.5066,2.506,2.5062,2.5075,2.5075,2.5075,2.5076,0,2.5134,2.514,2.5117,2.5116,2.5116,2.5099,2.5097,2.5084,2.5086,2.5067,2.5063,2.5066,2.5049,2.5053,2.5035,2.5037,2.5005,2.5011,2.5007,2.5008,2.4984,2.4985,2.4912,2.4901,2.4972,2.4972,2.4971,0,2.5104,2.5089,2.5087,2.5078,2.5076,2.5062,2.5054,2.5062,2.5053,2.5045,2.5032,2.5017,2.5006,2.4978,2.4977,2.4963,2.4967,2.4942,2.4965,2.4961,2.4964,2.4964,2.4961,2.4937,2.4936,2.4936,2.4935,0,2.5049,2.5052,2.5042,2.5031,2.5021,2.5013,2.5006,2.4998,2.5005,2.4994,2.4978,2.4969,2.4951,2.4935,2.4921,2.4917,2.4926,2.4928,2.4922,2.4918,2.4915,2.4914,2.4993,2.4929,2.493,2.493,2.4931,2.4931,2.5008,2.4994,2.499,2.4977,2.4972,2.4965,2.4952,2.4952,2.4939,2.4925,2.4931,2.4911,2.4904,2.4887,2.4881,2.4865,2.4874,2.4866,2.4863,2.486,2.4856,2.4919,2.4863,2.4863,2.4863,2.4864,2.4864,0,2.4951,2.4949,2.4937,2.4927,2.4916,2.4927,2.4919,2.4908,2.4892,2.4885,2.4873,2.4853,2.4837,2.4835,2.4819,2.4807,2.481,2.4802,2.4802,2.48,2.485,2.4856,2.4799,2.4799,2.4799,2.4799,2.4799,2.4799,2.4921,2.4898,2.49,2.4875,2.4872,2.4855,2.4849,2.4841,2.4835,2.4813,2.48,2.4799,2.4793,2.4777,2.4762,2.4762,2.4754,2.4744,2.4745,2.4791,2.4797,2.4803,2.4809,2.4743,2.4743,2.4696,2.4695,2.4695]}]]